Voltar ao catálogo

CZ-6A DEB

AtivoPO
NORAD 60972·DEBRIS·🇨🇳 China

Lançado Aug 6, 2024 de Taiyuan Satellite Launch Center

Loading…

Próximas Passagens (próximas 24 horas)

TLE

AtualizadoSource: Space-Track

Época: Sep 14, 2026, 00:25 UTC

1 60972U 24140LX  26257.01789325  .00001160  00000-0  47781-3 0  9990
2 60972  88.9930 263.7154 0029780 265.4732  94.3060 14.26065630107290

Acompanhe CZ-6A DEB em tempo real com AllMySat

Download on the App Store